User: anonymous   Login
Location: San Francisco
(37.7750°N, 122.4180°W)
Time: 03:33:15
(UTC-07:00)
Language:

GP-B - Orbit

View from above orbital plane
View from above orbital plane
View from above satellite
View from above satellite

Ground track
Ground track

The orbit data is extracted from the following two-line orbital elements,

1 28230U 04014A   15116.49781235  .00000878  00000-0  11936-3 0  9993
2 28230 089.8731 135.4931 0003405 089.8426 270.3187 14.78097546593464
Epoch (UTC): 26 April 2015 11:56:50
Eccentricity: 0.0003405
inclination: 89.8731°
perigee height: 633 km
apogee height: 638 km
right ascension of ascending node: 135.4931°
argument of perigee: 89.8426°
revolutions per day: 14.78097546
mean anomaly at epoch: 270.3187°
orbit number at epoch: 59346

The dashed part of the orbit path shows where the satellite is in the earth's shadow,  

DLR